Weather in Zolotoy Potok

Ukraine / Ternopil District     48°54′26″N   25°20′26″E
temp.,
°C
wind,
m/s
gust,
m/s
humid.,
%
clouds,
%
prec.,
mm/h
press.,
hPa
HPBL,
m
8 may, sat
sat800:00+8wnw389197 0.1 1009196
03:00+6nw81394100 2.8 10121007
06:00+5wnw81393100 1.8 1014821
09:00+4wnw91482100 1.9 10171220
12:00+7nw9127299 0.3 10191389
15:00+8wnw8116561 0.4 10201509
18:00+8nw79605 0.1 10201214
21:00+5wnw35815 0.1 102279
9 may, sun
sun900:00+3w22904 0.0 102322
03:00+2w22895 0.0 102419
06:00+2wsw118433 0.0 102613
09:00+8sw226515 0.0 1026269
12:00+13s335017 0.0 10251439
15:00+15ssw234672 0.0 10241700
18:00+15sse33505 0.0 10231302
21:00+10se486912 0.0 1025126
10 may, mon
mon1000:00+8se4136435 0.0 1025281
03:00+7se513675 0.0 1025301
06:00+5se39735 0.0 1024169
09:00+11se711665 0.0 1024446
12:00+15se8105858 0.0 1023812
15:00+18se8105516 0.0 10221058
18:00+17se812633 0.0 1021826
21:00+13se715685 0.0 1022496
11 may, tue
tue1100:00+11ese716714 0.0 1022458
03:00+10ese716745 0.0 1022423
06:00+8ese615745 0.0 1021358
09:00+12se814684 0.0 1021565
12:00+16se911562 0.0 1020865
15:00+18se810510 0.0 10191058
18:00+17se710590 0.0 1018983
21:00+13ese614630 0.0 1017371
12 may, wed
wed1200:00+11ese615701 0.0 1017368
03:00+10ese614860 0.0 1015315
06:00+9ese613966 0.0 1015311
09:00+12ese8118672 0.0 1014546
12:00+15ese8107152 0.0 10121040
15:00+17ese79530 0.0 10101384
18:00+16ese79600 0.0 10091411
21:00+10ese814750 0.0 1009528